GW4990 Weather Reports


time (UTC)temp
C
wind
direction
speed
KPH
gust
KPH
rain 1hr
cm
rain 24hr
cm
rain mn
cm
humidity
%
barometer
mb
20260504120304 33 260 0.0 0.0 0.00 0.00 0.00 66 1011.0
20260504110304 34 201 0.0 0.0 0.00 0.00 0.00 67 1011.0
20260504100305 35 126 0.0 0.0 0.00 0.00 0.00 64 1012.0
20260504081805 35 256 0.0 0.0 0.00 0.00 0.00 60 1013.0
20260504081304 35 178 0.0 0.0 0.00 0.00 0.00 60 1013.0
20260504080804 36 196 0.0 0.0 0.00 0.00 0.00 59 1013.0
20260504080304 35 182 0.0 0.0 0.00 0.00 0.00 59 1013.0
20260504070305 35 113 0.0 0.0 0.00 0.00 0.00 59 1014.0
20260504050304 31 173 0.0 0.0 0.00 0.00 0.00 73 1016.0
20260504045804 31 190 0.0 0.0 0.00 0.00 0.00 74 1016.0
20260504045304 31 177 0.0 0.0 0.00 0.00 0.00 75 1016.0
20260504044805 31 190 0.0 0.0 0.00 0.00 0.00 75 1016.0
20260504044304 30 180 0.0 0.0 0.00 0.00 0.00 76 1016.0
20260504043804 30 173 0.0 0.0 0.00 0.00 0.00 76 1016.0
20260504043305 30 218 0.0 0.0 0.00 0.00 0.00 75 1016.0
20260504042805 30 180 0.0 0.0 0.00 0.00 0.00 75 1016.0
20260504042304 30 180 0.0 0.0 0.00 0.00 0.00 74 1016.0
20260504041805 30 177 0.0 0.0 0.00 0.00 0.00 74 1016.0
20260504041305 30 202 0.0 0.0 0.00 0.00 0.00 76 1017.0
20260504040804 30 189 0.0 0.0 0.00 0.00 0.00 78 1017.0
20260504040304 30 199 0.0 0.0 0.00 0.00 0.00 75 1017.0
20260504035804 30 67 0.0 0.0 0.00 0.00 0.00 75 1017.0
20260504035305 30 196 0.0 0.0 0.00 0.00 0.00 77 1017.0
20260504034804 31 140 0.0 0.0 0.00 0.00 0.00 74 1017.0
20260504034304 31 103 0.0 0.0 0.00 0.00 0.00 74 1016.0
20260504033803 31 213 0.0 0.0 0.00 0.00 0.00 75 1016.0
20260504033304 30 106 0.0 0.0 0.00 0.00 0.00 76 1016.0
20260504032804 30 56 0.0 0.0 0.00 0.00 0.00 77 1016.0
20260504032306 30 137 0.0 0.0 0.00 0.00 0.00 77 1016.0
20260504031804 30 51 0.0 0.0 0.00 0.00 0.00 77 1016.0
20260504031304 30 115 0.0 0.0 0.00 0.00 0.00 78 1016.0
20260504030804 30 139 0.0 0.0 0.00 0.00 0.00 78 1016.0
20260504030304 30 171 0.0 0.0 0.00 0.00 0.00 78 1016.0
20260504025325 30 105 0.0 0.0 0.00 0.00 0.00 78 1016.0
20260504024804 30 187 0.0 0.0 0.00 0.00 0.00 78 1016.0
20260504024305 30 156 0.0 0.0 0.00 0.00 0.00 78 1016.0
20260504023804 30 112 0.0 0.0 0.00 0.00 0.00 77 1016.0
20260504023304 30 123 0.0 0.0 0.00 0.00 0.00 78 1016.0
20260504022804 30 107 0.0 0.0 0.00 0.00 0.00 78 1015.0
20260504022305 30 230 0.0 0.0 0.00 0.00 0.00 78 1015.0
20260504021805 30 135 0.0 0.0 0.00 0.00 0.00 78 1015.0
20260504021304 30 81 0.0 0.0 0.00 0.00 0.00 78 1015.0
20260504020804 29 102 0.0 0.0 0.00 0.00 0.00 78 1015.0
20260504020304 29 87 0.0 0.0 0.00 0.00 0.00 79 1015.0
20260504015804 29 124 0.0 0.0 0.00 0.00 0.00 80 1015.0
20260504015307 29 63 0.0 0.0 0.00 0.00 0.00 80 1015.0
20260504014804 28 41 0.0 0.0 0.00 0.00 0.00 81 1015.0
20260504014304 28 70 0.0 0.0 0.00 0.00 0.00 82 1015.0
20260504013804 28 184 0.0 0.0 0.00 0.00 0.00 82 1015.0
20260504013304 28 128 0.0 0.0 0.00 0.00 0.00 82 1015.0
20260503181304 31 57 0.0 0.0 0.00 0.00 0.00 68 1015.0
20260503180805 31 78 0.0 0.0 0.00 0.00 0.00 68 1015.0
20260503180304 31 0 0.0 0.0 0.00 0.00 0.00 68 1015.0
20260503175804 31 62 0.0 0.0 0.00 0.00 0.00 68 1015.0
20260503175305 31 10 0.0 0.0 0.00 0.00 0.00 69 1015.0
20260503174804 31 31 0.0 0.0 0.00 0.00 0.00 71 1015.0
20260503174305 31 0 0.0 0.0 0.00 0.00 0.00 78 1015.0
20260503173804 31 227 0.0 0.0 0.00 0.00 0.00 79 1015.0
20260503173304 31 183 0.0 0.0 0.00 0.00 0.00 79 1014.0
20260503172805 31 175 0.0 0.0 0.00 0.00 0.00 78 1014.0
20260503172305 31 187 0.0 0.0 0.00 0.00 0.00 78 1014.0
20260503171804 31 179 0.0 0.0 0.00 0.00 0.00 77 1015.0
20260503171304 31 167 0.0 0.0 0.00 0.00 0.00 77 1015.0
20260503170804 31 188 0.0 0.0 0.00 0.00 0.00 77 1015.0
20260503170304 31 203 0.0 0.0 0.00 0.00 0.00 77 1015.0
20260503150805 31 47 0.0 0.0 0.00 0.00 0.00 63 1013.0
20260503150304 31 117 0.0 0.0 0.00 0.00 0.00 63 1013.0
20260503140304 32 185 0.0 0.0 0.00 0.00 0.00 66 1012.0
20260503131304 32 200 0.0 0.0 0.00 0.00 0.00 69 1012.0
20260503130804 33 185 0.0 0.0 0.00 0.00 0.00 68 1012.0
20260503130306 33 188 0.0 0.0 0.00 0.00 0.00 68 1012.0